Weather History for EHAM - November, 2012

Change the Weather History Date:

Friday, November 2, 2012

  Actual Average Record
Temperature  
Mean Temperature 44 °F -  
Max Temperature 48 °F 48 °F 62 °F (2014)
Min Temperature 41 °F 39 °F 32 °F (1997)
Degree Days  
Heating Degree Days 20    
Moisture  
Dew Point 40 °F    
Average Humidity 83    
Maximum Humidity 93    
Minimum Humidity 68    
Precipitation  
Precipitation 0.01 in - - ()
Sea Level Pressure  
Sea Level Pressure 29.28 in    
Wind  
Wind Speed 16 mph ()    
Max Wind Speed 25 mph    
Max Gust Speed 32 mph    
Visibility 6.8 miles    
Events Rain , Thunderstorm    
Averages and records for this station are not official NWS values.
T = Trace of Precipitation, MM = Missing Value Source: Averaged Metar Reports

Daily Weather History Graph

Daily Weather History Graph

Search for Another Location

Airport or City:

Trip Planner

Search our weather history database for the weather conditions in past years. The results will help you decide how hot, cold, wet, or windy it might be!

Date:

Astronomy

Nov. 02, 2012 Rise Set
Actual Time 7:38 AM CET 5:09 PM CET
Civil Twilight 7:02 AM CET 5:45 PM CET
Nautical Twilight 6:22 AM CET 6:25 PM CET
Astronomical Twilight 5:43 AM CET 7:04 PM CET
Moon 7:25 PM CET 11:04 AM CET
Length of Visible Light 10h 42m
Length of Day
9h 30m
Waning Gibbous, 89% of the Moon is Illuminated
Nov 2
Waning Gibbous
Nov 7
Last Quarter
Nov 13
New
Nov 20
First Quarter
Nov 28
Full

Hourly Weather History & Observations

Time (CET) Temp. Windchill Dew Point Humidity Pressure Visibility Wind Dir Wind Speed Gust Speed Precip Events Conditions
12:25 AM 44.6 °F 38.8 °F 41.0 °F 87% 29.12 in 6.2 mi SSW 11.5 mph - N/A Rain Light Rain Showers
12:55 AM 44.6 °F 38.4 °F 42.8 °F 93% 29.12 in 6.2 mi SSW 12.7 mph - N/A   Scattered Clouds
1:00 AM 45 °F - 42 °F 85% 29.14 in 19 mi SSW 13.4 mph - - Rain Rain
1:25 AM 44.6 °F 36.9 °F 41.0 °F 87% 29.12 in 6.2 mi SSW 18.4 mph - N/A Rain Light Rain Showers
1:55 AM 44.6 °F 36.9 °F 39.2 °F 81% 29.15 in 6.2 mi SSW 18.4 mph - N/A   Partly Cloudy
2:25 AM 44.6 °F 36.9 °F 39.2 °F 81% 29.15 in 6.2 mi SSW 18.4 mph - N/A   Partly Cloudy
2:55 AM 42.8 °F 34.3 °F 37.4 °F 81% 29.18 in 6.2 mi SSW 19.6 mph - N/A   Partly Cloudy
3:25 AM 42.8 °F 33.8 °F 37.4 °F 81% 29.18 in 6.2 mi SSW 21.9 mph - N/A   Partly Cloudy
3:55 AM 42.8 °F 34.3 °F 37.4 °F 81% 29.18 in 6.2 mi SSW 19.6 mph - N/A   Partly Cloudy
4:00 AM 42 °F - 38 °F 80% 29.21 in 28 mi SSW 20.1 mph - -   Partly Cloudy
4:25 AM 41.0 °F 31.9 °F 37.4 °F 87% 29.21 in 6.2 mi SSW 19.6 mph - N/A   Partly Cloudy
4:55 AM 41.0 °F 31.6 °F 37.4 °F 87% 29.21 in 6.2 mi SSW 20.7 mph - N/A   Partly Cloudy
5:25 AM 41.0 °F 32.5 °F 37.4 °F 87% 29.21 in 6.2 mi SSW 17.3 mph - N/A   Partly Cloudy
5:55 AM 42.8 °F 34.8 °F 39.2 °F 87% 29.24 in 6.2 mi SSW 17.3 mph - N/A   Scattered Clouds
6:25 AM 42.8 °F 34.3 °F 39.2 °F 87% 29.24 in 6.2 mi SSW 19.6 mph 31.1 mph N/A Rain Light Rain Showers
6:55 AM 42.8 °F 33.8 °F 39.2 °F 87% 29.24 in 6.2 mi SSW 21.9 mph - N/A Rain Light Rain Showers
7:00 AM 43 °F - 39 °F 81% 29.25 in 19 mi SSW 22.4 mph - - Rain Light Drizzle
7:25 AM 42.8 °F 33.8 °F 39.2 °F 87% 29.24 in 6.2 mi SSW 21.9 mph - N/A Rain Light Rain Showers
7:55 AM 42.8 °F 33.3 °F 39.2 °F 87% 29.24 in 6.2 mi SSW 24.2 mph - N/A Rain Light Rain Showers
8:25 AM 42.8 °F 33.5 °F 39.2 °F 87% 29.27 in 6.2 mi SSW 23.0 mph - N/A   Scattered Clouds
8:55 AM 44.6 °F 35.9 °F 39.2 °F 81% 29.27 in 6.2 mi SSW 23.0 mph - N/A   Partly Cloudy
9:25 AM 44.6 °F 36.1 °F 39.2 °F 81% 29.30 in 6.2 mi SSW 21.9 mph - N/A   Partly Cloudy
9:55 AM 44.6 °F 35.9 °F 39.2 °F 81% 29.30 in 6.2 mi SSW 23.0 mph - N/A   Partly Cloudy
10:00 AM 45 °F - 39 °F 73% 29.31 in 25 mi SSW 24.6 mph - -   Partly Cloudy
10:25 AM 44.6 °F 35.9 °F 39.2 °F 81% 29.30 in 6.2 mi SSW 23.0 mph - N/A   Partly Cloudy
10:55 AM 46.4 °F 38.3 °F 39.2 °F 76% 29.30 in 6.2 mi SSW 23.0 mph - N/A   Partly Cloudy
11:25 AM 46.4 °F 38.7 °F 39.2 °F 76% 29.33 in 6.2 mi SSW 20.7 mph - N/A   Partly Cloudy
11:55 AM 46.4 °F 39.0 °F 39.2 °F 76% 29.33 in 6.2 mi SSW 19.6 mph - N/A   Partly Cloudy
12:25 PM 46.4 °F 38.3 °F 39.2 °F 76% 29.33 in 6.2 mi SSW 23.0 mph - N/A   Partly Cloudy
12:55 PM 48.2 °F - 39.2 °F 71% 29.33 in 6.2 mi SSW 21.9 mph - N/A   Partly Cloudy
1:00 PM 47 °F - 40 °F 68% 29.34 in 25 mi SSW 22.4 mph - -   Partly Cloudy
1:25 PM 46.4 °F 38.7 °F 39.2 °F 76% 29.33 in 6.2 mi SSW 20.7 mph - N/A   Scattered Clouds
1:55 PM 48.2 °F - 41.0 °F 76% 29.33 in 6.2 mi SSW 19.6 mph - N/A   Scattered Clouds
2:25 PM 46.4 °F 38.7 °F 39.2 °F 76% 29.33 in 6.2 mi SSW 20.7 mph 32.2 mph N/A   Mostly Cloudy
2:55 PM 46.4 °F 39.8 °F 41.0 °F 81% 29.33 in 6.2 mi SSW 16.1 mph - N/A   Partly Cloudy
3:25 PM 48.2 °F - 41.0 °F 76% 29.30 in 6.2 mi SSW 13.8 mph - N/A   Partly Cloudy
3:55 PM 46.4 °F 40.4 °F 41.0 °F 81% 29.30 in 6.2 mi SSW 13.8 mph - N/A Rain Light Rain Showers
4:00 PM 47 °F - 42 °F 76% 29.33 in 9 mi SSW 15.7 mph - - Rain Light Rain Showers
4:25 PM 46.4 °F 40.4 °F 41.0 °F 81% 29.30 in 6.2 mi SSW 13.8 mph - N/A Rain Light Rain Showers
4:55 PM 46.4 °F 39.5 °F 41.0 °F 81% 29.30 in 6.2 mi South 17.3 mph - N/A Rain Light Rain Showers
5:25 PM 44.6 °F 38.1 °F 41.0 °F 87% 29.30 in 6.2 mi SSW 13.8 mph - N/A   Partly Cloudy
5:55 PM 44.6 °F 39.2 °F 42.8 °F 93% 29.30 in 6.2 mi SSW 10.4 mph - N/A   Scattered Clouds
6:25 PM 44.6 °F 39.2 °F 42.8 °F 93% 29.30 in 6.2 mi South 10.4 mph - N/A   Partly Cloudy
6:55 PM 44.6 °F 38.4 °F 41.0 °F 87% 29.33 in 6.2 mi SSW 12.7 mph - N/A   Partly Cloudy
7:00 PM 44 °F - 41 °F 83% 29.33 in 28 mi SSW 13.4 mph - - Rain Rain
7:25 PM 42.8 °F 35.8 °F 39.2 °F 87% 29.33 in 6.2 mi South 13.8 mph - N/A   Partly Cloudy
7:55 PM 42.8 °F 35.8 °F 39.2 °F 87% 29.33 in 6.2 mi South 13.8 mph - N/A   Partly Cloudy
8:25 PM 42.8 °F 35.8 °F 39.2 °F 87% 29.33 in 6.2 mi SSW 13.8 mph - N/A   Partly Cloudy
8:55 PM 42.8 °F 36.6 °F 39.2 °F 87% 29.33 in 6.2 mi SSW 11.5 mph - N/A Rain Light Rain Showers
9:25 PM 42.8 °F 36.6 °F 41.0 °F 93% 29.36 in 6.2 mi South 11.5 mph - N/A Rain , Thunderstorm Light Thunderstorms and Rain
9:55 PM 42.8 °F 35.4 °F 39.2 °F 87% 29.36 in 6.2 mi SSW 15.0 mph - N/A   Scattered Clouds
10:00 PM 43 °F - 40 °F 84% 29.37 in 28 mi SSW 15.7 mph - - Thunderstorm Light Thunderstorm
10:25 PM 44.6 °F 37.2 °F 41.0 °F 87% 29.36 in 6.2 mi SSW 17.3 mph - N/A   Scattered Clouds
10:55 PM 42.8 °F 35.4 °F 39.2 °F 87% 29.39 in 6.2 mi SSW 15.0 mph - N/A   Partly Cloudy
11:25 PM 42.8 °F 36.6 °F 39.2 °F 87% 29.39 in 6.2 mi SSW 11.5 mph - N/A   Partly Cloudy
11:55 PM 42.8 °F 36.2 °F 39.2 °F 87% 29.42 in 6.2 mi SSW 12.7 mph - N/A   Partly Cloudy